Wind_Speed
25 25 25 26 27 27 28 29 29 28 28 27 26 26 25 27 28 28 29 29 31 31 33 34 35 38 41 42 43 44 44 45 45 44 45 46 46 46 46 46 46 46 46 44
25 24 25 25 26 27 27 28 28 27 27 27 26 24 24 25 26 26 27 27 28 30 31 33 35 37 41 43 43 43 44 45 45 45 45 45 47 46 46 46 46 46 46 45
23 23 24 25 25 25 26 27 26 26 26 26 26 24 23 23 24 24 25 27 27 28 29 31 33 35 38 40 42 42 44 44 45 45 44 45 46 47 46 48 47 46 45 45
23 23 23 24 25 25 25 25 26 25 25 25 25 26 23 23 23 24 24 26 26 28 30 32 33 33 35 38 40 42 43 43 43 44 43 44 45 46 46 47 48 47 46 45
21 21 22 23 24 25 25 24 25 25 26 25 25 26 24 24 24 25 25 26 26 28 30 32 33 33 34 36 38 40 41 42 43 44 45 45 45 45 46 46 48 47 47 46
20 20 21 22 23 24 24 24 25 26 26 25 24 26 25 25 26 26 27 27 27 28 29 31 32 33 35 36 37 38 40 41 41 43 43 44 44 45 45 45 46 46 47 47
19 19 20 21 22 23 23 24 25 27 27 26 25 26 25 25 26 27 27 26 26 28 29 30 32 34 34 35 36 37 39 40 40 41 42 42 42 43 46 46 46 46 46 46
19 18 18 19 20 21 22 23 24 27 27 26 26 25 24 25 26 27 28 27 27 27 29 31 32 33 34 35 36 37 37 38 38 39 41 41 41 41 42 44 46 47 47 46
19 19 19 19 19 20 21 22 23 26 27 27 27 25 24 25 27 27 27 28 28 28 29 31 32 32 34 36 36 37 38 38 38 38 40 40 41 41 41 43 43 45 46 46
20 20 19 20 20 20 21 21 22 24 26 27 27 25 24 25 26 27 27 28 29 30 31 31 31 32 33 35 36 37 37 37 37 38 38 40 41 41 42 42 42 42 44 46
21 21 20 20 20 20 21 21 22 23 25 27 27 25 24 24 26 27 28 28 28 30 31 32 32 31 32 34 36 36 37 36 37 37 37 38 40 41 41 41 43 42 42 43
22 22 21 21 22 22 22 22 22 23 24 26 26 25 24 25 25 26 27 27 28 29 30 31 31 31 32 33 34 35 35 35 36 36 36 37 38 39 39 39 41 40 40 41
23 23 23 22 22 23 23 23 23 24 24 25 25 24 25 26 26 27 27 27 28 28 28 29 29 29 30 31 32 33 33 34 36 36 35 35 36 36 36 38 39 40 40 41
24 23 23 24 24 24 24 24 24 25 24 25 24 24 25 26 27 28 28 29 29 30 29 29 29 28 28 29 30 31 32 33 34 34 34 34 35 35 35 36 38 39 39 40
25 25 25 25 24 24 24 24 24 24 24 24 23 24 24 26 27 28 28 29 29 29 29 28 28 28 29 29 29 30 31 31 32 32 33 33 34 34 34 35 36 37 38 38
26 26 26 25 24 25 25 24 24 24 24 24 24 23 25 26 27 27 27 28 28 28 28 28 28 28 27 27 28 29 30 30 30 30 31 32 33 33 34 35 36 36 37 37
26 26 26 25 25 25 24 23 24 24 24 24 24 23 24 25 25 25 26 27 27 26 26 27 27 27 26 27 28 29 29 30 30 30 31 32 32 33 33 34 34 35 35 35
26 25 26 25 24 24 22 22 23 24 23 23 23 23 23 23 23 24 25 26 25 25 25 25 25 25 24 26 27 27 28 28 28 29 30 31 31 32 33 33 33 33 33 33
25 24 24 24 24 23 21 22 23 23 23 24 24 24 24 24 23 23 25 25 25 25 24 24 24 23 23 24 26 27 28 28 28 28 30 30 30 30 31 31 32 31 32 33
24 23 24 24 25 24 23 23 24 24 24 24 24 25 25 25 25 23 24 24 25 24 24 23 23 22 22 23 24 25 27 28 28 29 29 29 29 29 29 30 30 30 30 30
24 24 24 24 24 23 23 23 24 24 25 25 25 25 26 26 26 24 23 24 24 24 23 22 21 22 22 22 23 23 24 25 26 27 28 28 28 28 28 28 28 28 28 29
25 24 24 24 23 22 22 23 23 23 23 24 24 25 26 25 25 24 24 23 23 23 23 22 22 22 22 22 22 22 23 24 25 26 27 27 27 27 27 27 27 27 27 28
24 24 24 24 23 23 23 23 23 23 23 23 24 25 26 25 25 24 24 23 22 22 22 22 22 22 22 22 22 22 22 23 23 24 25 26 27 26 26 26 26 27 27 27
24 24 23 23 23 23 23 24 24 24 24 23 24 24 25 25 24 24 24 23 21 21 21 21 22 21 21 21 21 21 21 21 21 21 22 23 23 24 25 26 26 26 26 27
23 24 23 23 24 24 23 24 25 24 24 24 24 24 24 24 23 23 22 22 21 21 20 20 20 19 19 20 20 20 20 19 19 19 20 21 22 23 23 24 24 24 25 25
24 24 24 23 23 24 24 24 24 25 25 25 24 24 24 23 22 21 21 20 20 19 18 17 17 17 17 17 18 18 18 18 18 18 18 20 20 21 22 22 22 23 23 23
Wind_Direction
287 281 279 280 282 283 283 281 279 279 278 277 279 279 275 272 271 270 267 261 253 250 248 249 250 249 247 247 247 246 245 245 245 247 248 248 247 247 247 247 247 248 250 251
285 282 280 281 283 284 284 282 281 280 278 276 280 281 275 273 271 271 268 262 256 252 249 251 251 251 249 248 249 247 246 246 246 248 249 249 248 247 247 246 247 248 249 249
283 281 280 282 284 286 285 283 281 280 278 277 280 279 273 272 270 271 270 264 260 258 253 252 253 252 252 249 249 247 245 247 247 247 249 249 249 247 247 246 247 248 249 250
285 282 283 284 284 285 284 283 282 281 280 281 283 281 271 270 268 269 271 266 262 258 256 254 254 255 255 253 249 247 245 248 247 246 247 250 250 248 247 247 248 250 251 250
290 286 285 284 285 284 284 283 282 281 280 283 288 285 275 272 270 267 269 267 265 260 257 254 254 256 257 254 250 249 247 247 247 247 247 250 250 248 247 247 248 250 251 250
296 290 289 287 285 284 283 282 282 281 281 284 288 285 280 276 276 274 272 268 266 262 261 259 258 258 257 254 250 251 248 248 249 249 249 252 251 249 248 249 249 250 251 250
299 295 293 291 288 285 284 284 283 282 280 284 288 284 281 281 280 278 276 272 268 265 265 264 262 262 260 255 254 251 248 248 250 252 251 252 252 251 250 250 248 250 251 250
301 297 296 294 291 288 285 285 286 286 286 286 286 285 282 283 282 280 278 274 273 272 270 268 266 263 260 257 257 253 251 249 250 252 252 253 252 252 251 251 249 249 249 249
301 298 297 295 293 291 287 287 288 288 288 288 287 285 285 284 282 281 278 276 274 274 273 270 268 265 260 258 258 255 253 252 253 254 254 253 254 252 251 250 249 248 248 249
300 298 298 297 294 292 290 290 292 290 291 290 289 287 289 288 287 283 280 278 275 275 276 275 271 266 261 258 257 256 254 255 255 256 256 254 255 255 253 250 250 252 252 250
297 295 296 296 295 293 292 290 291 292 292 291 292 293 291 292 292 287 281 279 279 279 278 277 275 270 265 261 258 255 254 255 256 257 257 257 258 258 255 253 251 252 252 252
297 295 294 294 294 293 291 291 291 293 294 293 294 296 292 291 290 286 283 281 279 278 277 275 275 271 267 264 260 257 254 254 255 257 258 258 258 258 256 255 253 253 254 253
298 294 294 293 292 291 290 290 292 293 293 294 294 296 293 290 289 286 284 282 281 279 279 277 277 274 268 265 260 257 255 255 256 258 259 260 259 258 257 256 255 255 254 253
297 293 293 294 292 290 289 290 291 291 293 294 294 295 293 290 289 287 286 284 282 282 279 278 276 275 268 264 262 260 258 258 258 259 260 261 260 259 258 258 256 255 255 254
296 293 292 291 291 290 289 289 290 291 293 293 295 294 293 292 291 291 290 288 285 282 280 279 278 276 269 266 263 261 261 261 262 263 262 261 261 260 260 259 259 257 254 252
296 293 291 290 290 291 291 289 289 290 292 293 294 294 292 294 294 293 292 290 287 284 281 280 279 276 271 267 264 261 262 262 263 264 263 261 262 261 261 260 260 258 255 253
297 293 291 290 289 289 291 291 288 289 292 294 296 297 295 295 294 294 292 290 288 285 283 283 280 277 271 266 263 262 262 262 263 264 263 262 262 261 261 260 259 257 255 253
298 293 291 291 290 291 294 291 290 291 294 295 297 297 297 297 296 295 293 291 288 288 286 285 282 277 270 267 264 264 265 265 265 264 262 261 263 262 261 260 259 256 254 253
299 294 291 291 292 292 292 294 294 293 294 296 296 297 296 296 297 295 294 292 290 289 287 286 284 278 274 271 268 266 268 268 268 267 264 262 263 263 261 260 258 255 254 254
299 294 291 290 291 292 293 294 295 295 295 297 298 298 297 295 296 295 293 292 290 289 289 287 283 278 275 273 273 272 270 269 269 268 266 262 261 262 261 258 256 256 256 256
299 294 291 290 290 292 294 295 296 295 297 297 296 296 297 297 296 295 292 290 289 288 287 286 282 277 275 274 274 274 272 271 270 268 266 263 261 260 259 258 257 256 256 256
299 296 292 291 291 294 295 297 297 298 298 299 298 297 299 300 297 294 292 290 289 288 286 284 282 279 275 275 276 275 275 274 271 268 266 264 263 263 262 260 259 258 257 256
296 295 293 292 293 292 293 294 296 298 300 301 301 300 299 299 297 295 292 290 290 289 287 285 283 280 277 275 276 277 277 276 274 270 269 265 264 264 262 260 259 258 257 256
295 294 293 292 293 291 290 291 294 297 302 304 303 302 300 300 298 293 290 289 289 289 288 287 285 282 278 275 275 278 277 277 277 275 270 264 262 262 260 259 257 257 258 258
296 295 294 294 293 291 289 289 292 295 300 304 304 302 301 300 298 295 291 288 287 288 288 289 287 283 280 279 278 278 279 279 280 276 271 267 265 261 260 261 259 257 258 258
297 295 294 295 294 292 290 289 291 293 297 301 303 302 300 298 298 295 292 288 286 287 287 289 288 284 283 283 282 283 283 282 281 279 275 270 267 263 262 262 262 260 258 256
Height
5678 5677 5675 5674 5672 5671 5669 5667 5666 5665 5662 5661 5660 5659 5659 5657 5656 5656 5656 5656 5657 5658 5661 5663 5665 5666 5669 5672 5675 5678 5682 5686 5690 5694 5697 5700 5703 5706 5709 5711 5714 5717 5720 5723
5672 5671 5670 5668 5666 5665 5663 5661 5660 5659 5657 5656 5655 5654 5653 5651 5651 5650 5649 5649 5650 5651 5653 5654 5656 5657 5659 5662 5665 5667 5671 5676 5680 5683 5686 5689 5692 5695 5698 5701 5703 5706 5709 5712
5666 5666 5664 5662 5661 5659 5657 5656 5654 5653 5652 5650 5649 5649 5648 5646 5645 5644 5644 5643 5644 5644 5646 5647 5648 5649 5650 5652 5655 5658 5661 5666 5669 5673 5675 5678 5680 5684 5687 5691 5693 5696 5698 5701
5660 5659 5658 5657 5656 5654 5652 5650 5649 5647 5646 5645 5644 5642 5644 5642 5640 5639 5638 5638 5638 5638 5639 5640 5641 5642 5643 5644 5646 5648 5652 5655 5658 5662 5665 5667 5670 5674 5677 5680 5683 5685 5687 5690
5655 5654 5653 5651 5650 5648 5647 5645 5644 5642 5641 5640 5638 5637 5638 5636 5635 5634 5632 5632 5631 5632 5632 5632 5633 5634 5634 5635 5637 5639 5642 5645 5648 5651 5654 5657 5660 5663 5667 5669 5672 5675 5677 5680
5650 5649 5647 5646 5644 5643 5641 5640 5638 5637 5636 5635 5634 5632 5632 5630 5629 5628 5626 5625 5624 5624 5624 5624 5624 5625 5626 5627 5629 5631 5633 5636 5638 5642 5645 5647 5650 5653 5656 5659 5662 5665 5667 5670
5646 5644 5642 5641 5639 5638 5637 5636 5634 5631 5630 5629 5629 5626 5627 5624 5623 5621 5620 5619 5618 5617 5617 5617 5617 5617 5617 5618 5620 5622 5624 5626 5629 5632 5635 5637 5640 5643 5646 5648 5651 5654 5657 5660
5641 5641 5639 5636 5635 5633 5632 5630 5629 5626 5624 5624 5622 5621 5622 5619 5617 5615 5613 5612 5611 5610 5610 5609 5609 5608 5608 5610 5611 5613 5615 5618 5620 5623 5625 5627 5630 5632 5635 5638 5641 5644 5646 5649
5637 5636 5634 5632 5630 5629 5627 5625 5624 5621 5618 5617 5616 5616 5616 5614 5611 5609 5607 5606 5605 5603 5602 5601 5601 5600 5600 5601 5603 5604 5607 5609 5612 5614 5616 5618 5620 5622 5624 5627 5630 5633 5635 5638
5632 5631 5629 5627 5625 5624 5622 5620 5618 5616 5613 5611 5610 5610 5610 5607 5605 5603 5601 5600 5598 5596 5595 5593 5592 5592 5593 5594 5595 5596 5599 5601 5604 5605 5607 5608 5610 5612 5614 5616 5619 5622 5625 5628
5627 5626 5625 5623 5620 5619 5617 5616 5613 5610 5608 5606 5604 5607 5603 5600 5598 5596 5595 5593 5591 5589 5588 5586 5585 5585 5585 5586 5587 5588 5591 5593 5595 5596 5598 5599 5601 5602 5604 5606 5609 5612 5615 5617
5622 5620 5619 5618 5616 5613 5612 5610 5608 5606 5604 5601 5598 5602 5597 5594 5591 5589 5588 5586 5584 5582 5581 5579 5578 5577 5577 5578 5578 5580 5583 5585 5587 5588 5590 5591 5592 5593 5595 5598 5600 5602 5605 5607
5616 5615 5613 5612 5613 5609 5607 5605 5602 5600 5598 5595 5593 5596 5591 5588 5585 5583 5582 5580 5578 5576 5574 5573 5572 5571 5570 5570 5571 5574 5576 5577 5579 5580 5581 5582 5583 5585 5586 5588 5590 5592 5595 5597
5610 5609 5608 5607 5604 5602 5601 5599 5596 5594 5592 5590 5589 5588 5586 5582 5579 5578 5576 5574 5572 5570 5568 5567 5566 5565 5565 5565 5566 5567 5568 5569 5571 5572 5573 5573 5574 5576 5577 5578 5580 5582 5584 5587
5604 5603 5601 5600 5598 5595 5594 5593 5591 5588 5586 5585 5583 5581 5579 5575 5573 5571 5569 5567 5565 5563 5562 5560 5559 5559 5559 5558 5559 5559 5560 5561 5562 5563 5564 5565 5566 5567 5568 5569 5570 5572 5574 5577
5598 5597 5595 5594 5591 5589 5588 5587 5585 5583 5581 5579 5577 5576 5572 5570 5567 5565 5562 5560 5558 5557 5555 5554 5553 5552 5551 5551 5551 5552 5553 5554 5554 5555 5555 5556 5557 5558 5559 5560 5561 5563 5565 5567
5591 5589 5588 5587 5585 5583 5583 5582 5579 5577 5575 5573 5571 5570 5566 5564 5561 5558 5556 5554 5552 5550 5549 5548 5546 5545 5545 5544 5545 5545 5546 5546 5547 5547 5547 5548 5549 5550 5551 5552 5552 5554 5556 5558
5585 5582 5581 5580 5580 5578 5580 5575 5573 5571 5569 5567 5565 5562 5560 5557 5555 5552 5550 5548 5546 5544 5543 5541 5539 5538 5538 5538 5538 5538 5538 5538 5538 5538 5539 5540 5541 5541 5542 5543 5544 5546 5548 5550
5579 5577 5575 5574 5572 5572 5572 5570 5567 5565 5564 5561 5559 5556 5554 5551 5549 5547 5544 5542 5540 5538 5536 5535 5533 5532 5531 5531 5531 5531 5531 5531 5530 5530 5531 5531 5532 5533 5534 5535 5536 5538 5540 5543
5573 5571 5570 5568 5566 5565 5567 5564 5561 5559 5558 5555 5552 5550 5547 5544 5543 5542 5538 5536 5534 5532 5530 5528 5527 5526 5525 5525 5524 5524 5524 5523 5523 5523 5523 5524 5524 5525 5526 5527 5529 5531 5532 5534
5568 5566 5564 5562 5560 5560 5560 5557 5555 5554 5553 5549 5546 5543 5541 5538 5537 5535 5532 5530 5528 5526 5524 5522 5521 5520 5519 5518 5518 5517 5517 5516 5516 5516 5516 5516 5517 5518 5519 5520 5522 5523 5525 5527
5563 5560 5559 5556 5555 5557 5554 5551 5549 5548 5545 5542 5539 5537 5534 5532 5529 5527 5525 5523 5522 5520 5518 5517 5515 5514 5513 5512 5512 5511 5510 5510 5509 5509 5509 5510 5510 5511 5512 5513 5514 5516 5518 5520
5557 5556 5553 5552 5553 5550 5547 5545 5543 5541 5538 5536 5533 5531 5528 5525 5523 5521 5519 5517 5516 5514 5513 5511 5510 5509 5508 5507 5506 5505 5505 5504 5503 5502 5502 5503 5503 5504 5505 5506 5508 5509 5511 5513
5552 5549 5547 5546 5546 5543 5541 5539 5537 5535 5532 5530 5527 5524 5521 5519 5517 5515 5513 5512 5510 5509 5507 5506 5504 5503 5502 5501 5500 5500 5499 5498 5497 5497 5496 5496 5497 5498 5498 5500 5501 5503 5504 5505
5546 5543 5541 5540 5539 5537 5535 5533 5531 5529 5527 5524 5521 5518 5515 5512 5511 5509 5507 5506 5505 5503 5502 5500 5499 5497 5496 5496 5495 5494 5493 5492 5492 5491 5491 5491 5491 5492 5492 5493 5494 5496 5497 5498
5540 5538 5536 5535 5533 5531 5529 5527 5525 5523 5521 5518 5515 5512 5510 5507 5505 5503 5502 5500 5499 5498 5497 5495 5494 5493 5492 5490 5489 5489 5488 5487 5486 5486 5485 5485 5486 5486 5487 5487 5488 5489 5490 5491